When you browse on this site, cookies collect data to enhance your experience and personalize the content and advertising you see.
Visit our Privacy Policy to learn more. By continuing to use the site, you agree to this use of cookies and data.
  • In Lithuania
  • List of Countries
  • For 7 days
  • Water Temperature
  • Satellite Maps
  • Weather Map
  • Weather Widgets
  • user-avatar
    Login

    Hourly Weather Tatarnovichi

    Today, 23 February, Saturday

    Time Temperature Precipitation Wind Pressure Humidity
    00:00 -9°C° 0 mm 6 mps 764 mmHg 53%
    01:00 -9°C° 0 mm 6 mps 765 mmHg 55%
    02:00 -9°C° 0 mm 6 mps 766 mmHg 58%
    03:00 -8°C° 0 mm 5 mps 766 mmHg 60%
    04:00 -8°C° 0 mm 5 mps 766 mmHg 62%
    05:00 -9°C° 0 mm 4 mps 766 mmHg 65%
    06:00 -9°C° 0 mm 4 mps 766 mmHg 66%
    07:00 -9°C° 0 mm 4 mps 767 mmHg 68%
    08:00 -8°C° 0 mm 3 mps 768 mmHg 68%
    09:00 -7°C° 0 mm 3 mps 768 mmHg 62%
    10:00 -6°C° 0 mm 3 mps 768 mmHg 56%
    11:00 -5°C° 0 mm 3 mps 768 mmHg 50%
    12:00 -4°C° 0 mm 3 mps 768 mmHg 44%
    13:00 -4°C° 0 mm 3 mps 768 mmHg 39%
    14:00 -1°C° 0 mm 2 mps 768 mmHg 30%
    15:00 -1°C° 0 mm 2 mps 767 mmHg 31%
    16:00 -1°C° 0 mm 3 mps 767 mmHg 32%
    17:00 -2°C° 0 mm 3 mps 766 mmHg 34%
    18:00 -2°C° 0 mm 3 mps 766 mmHg 37%
    19:00 -2°C° 0 mm 3 mps 766 mmHg 40%
    20:00 -4°C° 0 mm 3 mps 766 mmHg 43%
    21:00 -4°C° 0 mm 4 mps 766 mmHg 44%
    22:00 -4°C° 0 mm 4 mps 765 mmHg 44%
    23:00 -3°C° 0 mm 4 mps 765 mmHg 44%

    Tomorrow, 24 February, Sunday

    Time Temperature Precipitation Wind Pressure Humidity
    00:00 -5°C° 0 mm 5 mps 765 mmHg 43%
    01:00 -5°C° 0 mm 5 mps 764 mmHg 42%
    02:00 -5°C° 0 mm 5 mps 764 mmHg 41%
    03:00 -5°C° 0 mm 5 mps 763 mmHg 41%
    04:00 -5°C° 0 mm 5 mps 763 mmHg 41%
    05:00 -5°C° 0 mm 5 mps 763 mmHg 41%
    06:00 -4°C° 0 mm 5 mps 762 mmHg 41%
    07:00 -3°C° 0 mm 4 mps 762 mmHg 42%
    08:00 -3°C° 0 mm 4 mps 762 mmHg 42%
    09:00 -3°C° 0 mm 4 mps 762 mmHg 42%
    10:00 -2°C° 0 mm 4 mps 762 mmHg 43%
    11:00 -2°C° 0 mm 4 mps 762 mmHg 43%
    12:00 -1°C° 0 mm 4 mps 762 mmHg 45%
    13:00 0°C° 0 mm 4 mps 762 mmHg 47%
    14:00 +1°C° 0 mm 3 mps 761 mmHg 49%
    15:00 +1°C° 0 mm 3 mps 761 mmHg 53%
    16:00 +1°C° 0 mm 3 mps 761 mmHg 57%
    17:00 0°C° 0 mm 3 mps 761 mmHg 61%
    18:00 0°C° 0 mm 3 mps 761 mmHg 64%
    19:00 -1°C° 0 mm 3 mps 760 mmHg 68%
    20:00 -1°C° 0 mm 3 mps 760 mmHg 72%
    21:00 -2°C° 0 mm 3 mps 760 mmHg 73%
    22:00 -2°C° 0 mm 3 mps 760 mmHg 73%
    23:00 -2°C° 0 mm 3 mps 760 mmHg 74%

    Day after tomorrow, 25 February, Monday

    Time Temperature Precipitation Wind Pressure Humidity
    00:00 -2°C° 0 mm 3 mps 759 mmHg 73%
    01:00 -3°C° 0 mm 4 mps 759 mmHg 73%
    02:00 -2°C° 0 mm 4 mps 759 mmHg 72%
    03:00 -2°C° 0 mm 4 mps 759 mmHg 74%
    04:00 -2°C° 0 mm 4 mps 758 mmHg 76%
    05:00 -3°C° 0 mm 4 mps 758 mmHg 78%
    06:00 -2°C° 0 mm 4 mps 758 mmHg 81%
    07:00 -2°C° 0 mm 4 mps 758 mmHg 84%
    08:00 -2°C° 0 mm 4 mps 758 mmHg 88%
    09:00 -1°C° 0 mm 4 mps 758 mmHg 86%
    10:00 0°C° 0 mm 4 mps 758 mmHg 84%
    11:00 +1°C° 0 mm 4 mps 758 mmHg 81%
    12:00 +3°C° 0 mm 4 mps 758 mmHg 79%
    13:00 +3°C° 0 mm 4 mps 758 mmHg 77%
    14:00 +3°C° 0 mm 5 mps 758 mmHg 74%
    15:00 +2°C° 0 mm 5 mps 757 mmHg 78%
    16:00 +2°C° 0 mm 5 mps 757 mmHg 82%
    17:00 +1°C° 0 mm 5 mps 756 mmHg 85%
    18:00 +1°C° 0 mm 6 mps 756 mmHg 88%
    19:00 -1°C° 0 mm 6 mps 756 mmHg 90%
    20:00 -1°C° 0 mm 6 mps 756 mmHg 93%
    21:00 -1°C° 0 mm 6 mps 756 mmHg 91%
    22:00 0°C° 0 mm 5 mps 756 mmHg 90%
    23:00 0°C° 0 mm 5 mps 756 mmHg 89%

    26 February, Tuesday

    Time Temperature Precipitation Wind Pressure Humidity
    00:00 -1°C° 0 mm 5 mps 756 mmHg 90%
    01:00 -1°C° 0 mm 5 mps 756 mmHg 91%
    02:00 -2°C° 0 mm 5 mps 755 mmHg 93%
    03:00 -2°C° 0 mm 5 mps 755 mmHg 92%
    04:00 -2°C° 0 mm 5 mps 755 mmHg 90%
    05:00 -2°C° 0 mm 5 mps 754 mmHg 89%
    06:00 -2°C° 0 mm 5 mps 754 mmHg 89%
    07:00 -2°C° 0 mm 5 mps 753 mmHg 89%
    08:00 -2°C° 0 mm 5 mps 753 mmHg 89%
    09:00 -2°C° 0 mm 6 mps 752 mmHg 82%
    10:00 -1°C° 0 mm 6 mps 752 mmHg 76%
    11:00 +2°C° 0 mm 7 mps 751 mmHg 70%
    12:00 +3°C° 0 mm 7 mps 751 mmHg 70%
    13:00 +3°C° 0 mm 7 mps 751 mmHg 69%
    14:00 +4°C° 0 mm 8 mps 750 mmHg 69%
    15:00 +4°C° 0 mm 7 mps 750 mmHg 68%
    16:00 +4°C° 0 mm 7 mps 751 mmHg 67%
    17:00 +4°C° 0 mm 7 mps 751 mmHg 66%
    18:00 +3°C° 0 mm 6 mps 751 mmHg 68%
    19:00 +2°C° 0 mm 6 mps 752 mmHg 70%
    20:00 +1°C° 0 mm 5 mps 753 mmHg 72%
    21:00 +1°C° 0 mm 5 mps 753 mmHg 76%
    22:00 0°C° 0 mm 4 mps 753 mmHg 80%
    23:00 0°C° 0 mm 4 mps 754 mmHg 84%

    27 February, Wednesday

    Time Temperature Precipitation Wind Pressure Humidity
    00:00 -1°C° 0 mm 4 mps 754 mmHg 85%
    01:00 -1°C° 0 mm 4 mps 754 mmHg 87%
    02:00 -1°C° 0 mm 4 mps 755 mmHg 88%
    03:00 -2°C° 0 mm 4 mps 755 mmHg 90%
    04:00 -2°C° 0 mm 4 mps 755 mmHg 91%
    05:00 -2°C° 0 mm 4 mps 755 mmHg 93%
    06:00 -1°C° 0 mm 3 mps 755 mmHg 93%
    07:00 -1°C° 0 mm 3 mps 755 mmHg 92%
    08:00 -1°C° 0 mm 3 mps 755 mmHg 92%
    09:00 0°C° 0 mm 3 mps 754 mmHg 86%
    10:00 0°C° 0 mm 4 mps 754 mmHg 79%
    11:00 +3°C° 0 mm 4 mps 754 mmHg 73%
    12:00 +4°C° 0 mm 4 mps 753 mmHg 68%
    13:00 +5°C° 0 mm 5 mps 753 mmHg 63%
    14:00 +6°C° 0 mm 5 mps 752 mmHg 58%
    15:00 +5°C° 0 mm 5 mps 751 mmHg 60%
    16:00 +5°C° 0 mm 5 mps 751 mmHg 61%
    17:00 +5°C° 0 mm 5 mps 750 mmHg 63%
    18:00 +4°C° 0 mm 4 mps 750 mmHg 71%
    19:00 +3°C° 0 mm 4 mps 750 mmHg 78%
    20:00 +2°C° 0 mm 3 mps 750 mmHg 86%
    21:00 +2°C° 0 mm 3 mps 749 mmHg 88%
    22:00 +1°C° 0 mm 3 mps 749 mmHg 91%
    23:00 +1°C° 0 mm 3 mps 749 mmHg 94%

    28 February, Thursday

    Time Temperature Precipitation Wind Pressure Humidity
    00:00 0°C° 0 mm 3 mps 748 mmHg 95%
    01:00 +1°C° 0 mm 2 mps 748 mmHg 96%
    02:00 +1°C° 0 mm 2 mps 747 mmHg 96%
    03:00 0°C° 0 mm 3 mps 746 mmHg 97%
    04:00 0°C° 0 mm 3 mps 746 mmHg 97%
    05:00 -1°C° 0 mm 4 mps 745 mmHg 97%
    06:00 -1°C° 0 mm 4 mps 744 mmHg 96%
    07:00 0°C° 0 mm 5 mps 743 mmHg 94%
    08:00 +1°C° 0 mm 6 mps 742 mmHg 93%
    09:00 +2°C° 0 mm 7 mps 741 mmHg 87%
    10:00 +3°C° 0 mm 7 mps 740 mmHg 81%
    11:00 +4°C° 0 mm 8 mps 739 mmHg 74%
    12:00 +4°C° 0 mm 8 mps 739 mmHg 73%
    13:00 +5°C° 0 mm 9 mps 738 mmHg 73%
    14:00 +5°C° 0 mm 9 mps 738 mmHg 72%
    15:00 +3°C° 0.1 mm 9 mps 738 mmHg 74%
    16:00 +3°C° 0.1 mm 9 mps 738 mmHg 76%
    17:00 +2°C° 0.1 mm 8 mps 738 mmHg 78%
    18:00 +2°C° 0 mm 8 mps 738 mmHg 78%
    19:00 +2°C° 0 mm 8 mps 738 mmHg 79%
    20:00 +1°C° 0 mm 8 mps 738 mmHg 80%
    21:00 +1°C° 0 mm 8 mps 738 mmHg 80%
    22:00 +1°C° 0 mm 8 mps 738 mmHg 80%
    23:00 0°C° 0 mm 8 mps 738 mmHg 80%
    Show more